Wind_Speed
15 13 12 12 11 11 11 11 9 7 6 8 9 12 13 14 14 15 16 17 17 17 15 14 14 13 13 12 11 9 8 8 7 6 6 5 5 6 8 9 10 10 12 12
17 14 15 15 14 12 12 12 10 9 9 11 11 12 13 14 15 15 16 18 17 17 15 14 14 14 13 12 11 9 8 8 7 7 6 5 5 6 7 9 11 11 13 13
18 16 18 17 16 14 13 13 11 11 13 14 14 13 13 13 14 15 16 17 16 16 15 15 14 13 12 11 11 9 8 8 7 7 6 5 6 6 7 8 10 11 13 14
20 19 19 17 16 16 14 13 13 14 14 14 16 16 13 13 13 14 15 15 16 16 15 14 13 12 10 10 10 9 8 7 7 7 6 5 6 6 7 8 9 11 12 12
19 19 20 18 16 17 15 15 15 15 15 15 15 16 13 14 14 14 14 15 15 16 15 14 13 11 9 8 8 8 7 7 7 7 7 7 7 7 8 9 9 11 12 13
21 21 21 19 18 18 16 17 17 16 15 14 12 15 15 15 14 14 14 15 15 15 15 13 12 10 9 8 8 7 7 7 7 8 8 8 8 9 9 9 9 11 12 13
22 21 20 20 20 18 18 17 17 17 15 13 13 14 13 13 14 14 14 15 15 14 13 12 12 10 9 9 8 7 7 7 7 7 8 8 8 9 9 10 10 10 12 13
25 22 20 20 18 18 17 17 18 17 16 14 14 14 12 13 14 14 13 14 14 13 12 11 11 10 8 8 8 8 7 8 8 8 8 8 8 9 9 10 10 11 12 13
25 22 21 21 18 18 17 18 18 19 18 18 15 14 12 14 16 15 14 14 13 12 11 10 9 8 7 8 8 7 7 7 8 8 8 8 8 9 9 9 10 11 12 13
26 24 23 23 22 20 18 17 19 21 20 20 17 15 14 14 14 13 14 13 12 13 11 9 8 7 7 7 7 7 6 6 7 7 6 6 7 8 9 9 10 11 13 14
26 26 24 25 24 20 18 17 18 20 22 21 20 18 16 16 16 15 14 12 11 10 9 8 8 8 7 7 8 8 8 7 7 6 6 6 6 7 8 9 10 11 13 14
24 26 26 25 23 22 21 19 19 20 20 21 21 19 18 17 16 15 14 13 10 9 9 9 8 8 7 8 8 8 8 7 6 5 5 6 6 7 8 9 10 11 12 13
24 28 28 27 27 24 22 20 19 20 21 22 22 21 20 19 17 16 15 13 10 10 10 10 9 8 7 8 8 8 8 7 6 6 6 7 7 8 9 10 11 11 12 13
26 29 29 28 26 26 24 21 18 19 21 22 23 22 22 20 18 17 16 14 14 12 11 11 10 9 8 8 8 8 8 8 7 8 7 8 8 8 9 10 11 12 13 13
31 31 30 29 29 30 27 24 21 21 21 21 21 23 22 21 20 19 17 16 15 14 13 13 12 11 9 9 9 9 8 8 8 8 8 9 9 9 9 10 10 11 11 12
36 34 32 31 31 33 31 27 25 23 22 21 21 22 22 22 21 20 19 17 15 15 14 14 13 11 11 11 10 10 10 10 10 10 10 10 10 10 10 10 10 11 12 12
41 39 36 34 33 35 35 30 28 26 25 24 24 23 22 23 23 22 20 19 18 17 16 15 14 13 13 13 13 12 11 12 12 12 12 12 12 12 12 12 12 12 13 13
44 42 40 37 36 38 35 32 31 29 28 27 26 25 25 25 24 24 23 21 18 18 17 16 16 15 14 14 15 14 14 14 14 14 14 14 15 15 14 14 14 14 14 15
47 45 42 40 39 39 36 34 34 33 31 29 28 27 27 27 26 25 24 22 21 20 19 19 18 17 16 17 17 16 16 16 17 17 17 17 17 16 16 16 16 16 16 16
49 47 45 43 41 39 36 34 35 35 35 32 31 30 29 29 28 27 26 25 24 24 22 21 20 19 19 19 19 19 19 19 19 19 19 19 18 18 17 17 17 17 17 17
49 48 46 45 43 40 37 36 37 38 36 34 33 32 31 31 30 29 28 27 27 26 24 23 22 22 21 21 21 21 21 21 21 21 21 20 20 19 19 19 19 19 19 19
50 49 47 45 44 42 37 37 39 39 37 36 34 34 34 32 31 30 28 28 27 26 26 25 24 24 23 23 23 23 23 23 23 23 23 22 22 21 21 21 21 21 21 21
48 48 47 46 44 40 39 39 40 40 38 37 36 36 36 35 33 32 30 28 29 29 29 28 27 26 25 25 25 24 24 25 24 24 24 24 23 23 23 23 22 22 22 22
47 48 48 47 45 42 39 39 40 40 40 38 37 38 37 36 34 34 33 31 30 31 30 30 29 28 27 27 26 26 26 26 26 25 25 25 24 24 23 23 23 23 23 23
46 46 47 47 45 43 41 40 39 39 40 40 39 38 38 38 36 35 34 33 32 31 31 31 30 29 28 28 28 27 27 27 26 25 25 24 24 24 23 23 23 23 23 23
42 43 44 45 44 42 41 40 40 40 40 40 40 39 38 37 37 36 36 34 32 32 31 31 30 30 29 29 28 28 28 28 27 26 25 24 24 24 24 23 23 23 23 23
Wind_Direction
240 240 240 240 239 242 249 249 250 255 272 284 290 296 299 304 312 319 322 325 325 329 329 325 320 316 315 316 318 319 315 314 311 311 301 278 250 238 231 227 221 211 209 213
239 240 239 240 240 243 252 255 247 244 253 267 279 286 290 294 302 308 318 322 322 325 325 324 317 309 307 308 309 307 302 306 306 304 300 281 259 242 239 232 223 218 216 216
238 236 239 242 242 241 246 250 248 242 248 259 269 276 281 286 294 303 313 322 324 325 322 320 319 309 302 301 301 294 289 295 296 295 291 272 264 245 227 224 224 224 219 218
236 237 241 244 246 247 244 245 248 250 253 254 265 272 277 279 285 300 312 318 323 326 326 326 324 315 304 298 301 291 278 284 287 291 288 275 263 238 228 230 233 227 221 220
235 237 241 243 246 249 247 247 251 255 257 259 263 271 273 274 283 297 309 312 318 325 327 327 324 316 306 295 300 295 280 280 282 281 280 270 254 240 234 237 236 230 225 225
232 235 240 243 242 244 246 248 251 255 257 259 261 269 270 272 282 295 306 313 320 323 326 326 324 317 306 298 304 297 289 281 279 274 273 265 250 242 239 237 236 231 226 226
235 235 240 243 244 245 246 249 252 253 255 253 257 266 271 270 279 295 309 315 318 318 321 323 321 317 314 312 311 300 291 287 281 276 271 263 251 243 240 236 236 233 227 225
235 232 236 240 244 249 250 251 254 255 253 247 251 263 271 275 286 295 301 312 314 320 323 323 322 315 312 315 314 300 290 286 282 277 272 261 254 248 244 241 239 236 231 231
236 231 230 233 234 239 245 250 253 252 250 248 250 259 273 278 290 294 296 309 314 321 321 317 319 315 314 318 316 304 297 294 289 279 272 263 253 248 251 249 243 239 236 238
232 230 228 231 231 232 238 245 248 248 249 248 250 256 266 281 290 298 303 305 314 320 324 321 318 323 325 324 327 330 314 308 302 288 277 270 258 253 251 250 243 242 243 243
230 230 226 229 232 233 235 240 247 249 249 249 249 252 259 274 287 293 298 302 310 322 326 327 319 319 321 325 328 329 323 316 306 295 282 276 272 261 261 256 250 251 250 249
227 228 225 226 230 233 236 239 246 250 250 250 251 251 257 265 278 286 295 303 309 316 321 324 322 317 315 316 317 322 327 327 314 297 293 286 282 272 266 262 260 259 256 253
225 229 225 221 223 230 236 239 243 248 247 246 245 248 251 259 271 283 291 299 306 314 316 319 318 314 310 311 310 313 319 325 325 308 298 295 291 285 280 273 268 267 262 256
227 232 230 226 224 228 233 237 241 245 247 246 245 244 249 258 268 277 287 293 304 306 308 310 312 307 300 300 302 305 309 312 315 316 311 306 302 296 288 281 277 272 265 257
227 231 231 226 221 223 228 231 234 241 248 249 245 243 247 255 264 271 279 287 295 299 304 306 308 305 303 303 303 306 307 305 307 309 310 309 308 305 298 289 284 280 272 266
225 229 231 228 222 222 225 227 231 236 241 245 242 241 245 251 258 267 273 281 292 295 298 305 303 303 303 300 299 300 298 297 298 300 300 302 304 306 303 295 286 288 283 274
225 228 231 231 227 225 225 226 229 232 237 241 242 245 249 253 258 267 274 280 285 290 291 297 302 299 298 296 295 296 292 291 292 293 295 296 297 300 299 295 293 292 287 284
226 231 233 234 230 229 226 225 228 231 234 238 241 243 247 256 260 263 268 276 282 286 290 292 299 296 294 293 293 292 291 291 292 291 292 292 292 292 293 293 291 290 287 283
228 232 235 237 234 232 228 226 229 231 235 236 239 242 247 253 258 261 265 271 278 280 285 290 294 293 291 289 289 289 290 290 289 290 289 289 290 291 290 289 288 286 286 284
229 232 234 237 236 234 230 227 229 233 235 236 239 243 248 253 258 265 268 272 276 280 283 285 286 288 289 288 287 287 289 289 288 288 288 289 288 287 287 288 286 285 284 284
225 230 234 236 237 237 232 228 229 232 236 238 240 243 248 253 259 264 268 271 276 277 278 279 282 285 286 286 285 285 286 287 287 288 289 288 287 284 284 285 284 283 283 282
225 228 232 235 238 237 233 230 230 233 236 238 242 246 251 255 259 263 266 269 274 275 276 279 282 284 285 284 283 283 284 285 286 287 286 286 285 283 282 283 282 281 281 282
224 226 230 233 237 238 235 233 231 234 236 239 243 249 252 254 259 261 265 269 271 274 276 279 281 284 284 283 282 282 283 284 285 284 283 284 284 283 282 282 281 282 282 282
223 226 229 233 236 236 235 234 233 234 236 239 244 248 251 254 256 261 263 267 272 274 275 277 279 280 281 281 281 281 282 284 284 284 283 282 282 282 281 280 279 280 281 281
222 225 228 231 234 234 234 232 232 234 236 238 241 246 249 252 257 261 264 265 269 272 274 274 276 277 278 278 280 281 281 282 283 283 282 282 281 281 280 279 279 278 278 278
221 223 225 228 231 234 234 233 233 235 238 240 242 246 249 251 254 258 261 263 267 271 272 272 273 275 276 277 279 280 281 281 282 281 280 281 280 280 280 279 278 276 276 276
Height
5899 5901 5902 5903 5903 5904 5904 5904 5904 5904 5903 5903 5903 5902 5901 5900 5899 5898 5897 5896 5894 5892 5889 5887 5885 5883 5882 5881 5880 5879 5878 5877 5877 5876 5876 5876 5876 5876 5876 5877 5879 5880 5882 5884
5896 5898 5898 5898 5899 5900 5901 5901 5901 5902 5901 5901 5900 5900 5899 5898 5897 5896 5895 5894 5892 5891 5888 5886 5883 5881 5880 5879 5878 5877 5876 5876 5875 5875 5874 5874 5874 5874 5875 5876 5877 5879 5880 5882
5891 5894 5893 5895 5896 5897 5897 5898 5899 5899 5899 5898 5898 5898 5897 5896 5895 5894 5893 5892 5891 5889 5886 5884 5881 5879 5877 5876 5875 5875 5875 5874 5874 5873 5872 5872 5872 5873 5873 5874 5875 5877 5878 5880
5886 5888 5889 5891 5892 5893 5894 5895 5895 5895 5895 5895 5895 5894 5895 5893 5892 5892 5891 5890 5888 5886 5884 5881 5878 5875 5874 5874 5873 5872 5872 5872 5872 5871 5871 5871 5871 5871 5872 5873 5874 5875 5876 5878
5882 5884 5884 5886 5888 5889 5890 5891 5891 5891 5892 5892 5892 5891 5892 5890 5889 5889 5888 5887 5885 5883 5881 5879 5877 5874 5873 5872 5872 5870 5870 5870 5870 5870 5869 5869 5869 5869 5870 5871 5872 5873 5874 5875
5876 5878 5879 5882 5883 5884 5885 5887 5887 5887 5888 5889 5889 5888 5888 5887 5887 5886 5885 5883 5881 5881 5879 5877 5875 5873 5872 5871 5870 5869 5868 5868 5868 5867 5867 5867 5867 5867 5868 5869 5869 5870 5872 5873
5870 5873 5875 5877 5879 5880 5881 5882 5883 5883 5884 5885 5885 5884 5885 5884 5884 5883 5882 5881 5879 5878 5877 5875 5873 5872 5871 5870 5868 5867 5867 5866 5865 5865 5865 5865 5865 5865 5866 5866 5867 5868 5869 5870
5863 5868 5870 5872 5874 5876 5876 5878 5880 5880 5881 5882 5881 5880 5882 5880 5881 5881 5880 5879 5877 5875 5874 5873 5872 5871 5870 5868 5867 5865 5864 5864 5863 5863 5863 5863 5863 5863 5863 5864 5864 5865 5866 5868
5858 5862 5865 5866 5868 5870 5871 5873 5875 5875 5876 5877 5877 5877 5878 5877 5877 5878 5878 5877 5875 5873 5872 5871 5870 5869 5868 5866 5865 5863 5862 5862 5861 5860 5860 5860 5860 5861 5861 5861 5862 5863 5864 5865
5851 5855 5859 5861 5862 5864 5867 5869 5869 5870 5871 5872 5874 5874 5875 5874 5874 5875 5875 5874 5873 5872 5870 5868 5867 5867 5866 5865 5863 5862 5861 5860 5859 5858 5858 5858 5858 5858 5858 5858 5859 5860 5861 5862
5845 5849 5853 5855 5857 5860 5862 5864 5864 5866 5867 5868 5869 5872 5872 5872 5872 5872 5872 5871 5871 5869 5868 5867 5866 5865 5864 5863 5862 5861 5860 5859 5858 5857 5856 5856 5856 5856 5856 5856 5856 5857 5857 5858
5839 5842 5846 5849 5852 5854 5856 5858 5860 5862 5863 5864 5865 5869 5868 5869 5869 5869 5869 5868 5867 5867 5866 5865 5864 5864 5862 5862 5861 5860 5859 5857 5856 5855 5855 5854 5854 5854 5854 5854 5854 5854 5854 5855
5832 5835 5840 5843 5848 5850 5851 5853 5855 5857 5858 5859 5861 5865 5863 5865 5865 5866 5865 5865 5864 5864 5864 5863 5862 5862 5861 5860 5859 5858 5857 5856 5855 5854 5854 5853 5852 5852 5851 5851 5851 5850 5851 5851
5826 5828 5834 5839 5842 5845 5846 5849 5851 5852 5853 5854 5856 5859 5860 5861 5862 5862 5862 5862 5862 5862 5862 5861 5860 5860 5859 5858 5857 5857 5856 5855 5854 5853 5852 5851 5851 5850 5849 5848 5848 5848 5847 5847
5819 5822 5827 5832 5836 5839 5841 5843 5846 5847 5848 5850 5852 5854 5856 5857 5858 5859 5859 5859 5859 5859 5859 5858 5857 5857 5856 5856 5856 5855 5854 5853 5853 5852 5851 5850 5849 5848 5847 5846 5845 5845 5844 5844
5812 5816 5820 5825 5830 5832 5835 5838 5841 5842 5844 5845 5847 5849 5851 5853 5854 5855 5856 5856 5857 5857 5856 5855 5854 5854 5853 5853 5853 5853 5852 5851 5850 5850 5849 5848 5847 5846 5845 5843 5843 5842 5841 5840
5805 5809 5814 5818 5823 5826 5829 5834 5835 5837 5839 5840 5842 5845 5846 5848 5849 5851 5852 5853 5854 5853 5853 5852 5852 5851 5850 5850 5850 5850 5849 5848 5848 5847 5846 5845 5844 5844 5842 5841 5840 5839 5838 5837
5799 5803 5807 5811 5816 5818 5826 5828 5829 5831 5833 5835 5837 5840 5841 5843 5845 5847 5848 5849 5850 5850 5849 5848 5848 5847 5847 5847 5846 5846 5845 5845 5844 5844 5843 5842 5841 5840 5839 5838 5837 5836 5835 5834
5792 5796 5800 5804 5807 5811 5818 5821 5823 5825 5827 5829 5832 5834 5836 5839 5840 5842 5844 5845 5845 5845 5845 5845 5844 5843 5843 5843 5842 5842 5841 5841 5840 5839 5838 5838 5837 5836 5834 5834 5833 5832 5830 5829
5784 5788 5793 5796 5800 5804 5812 5816 5817 5819 5820 5824 5826 5829 5831 5833 5836 5838 5839 5840 5840 5840 5840 5840 5840 5839 5839 5838 5837 5837 5836 5836 5835 5834 5833 5833 5832 5831 5829 5828 5827 5826 5825 5824
5775 5779 5783 5788 5791 5796 5803 5808 5810 5813 5815 5819 5821 5823 5826 5828 5831 5833 5833 5834 5835 5835 5834 5834 5834 5834 5833 5833 5832 5832 5831 5830 5830 5829 5828 5827 5826 5825 5824 5823 5822 5821 5820 5819
5767 5771 5775 5780 5784 5790 5796 5800 5803 5805 5809 5812 5815 5818 5820 5822 5824 5826 5827 5828 5828 5828 5828 5828 5828 5828 5827 5827 5826 5826 5825 5824 5824 5823 5821 5820 5820 5819 5818 5817 5816 5815 5814 5813
5757 5763 5767 5772 5777 5782 5787 5792 5795 5799 5802 5805 5808 5811 5813 5815 5817 5819 5820 5820 5821 5821 5821 5821 5821 5821 5821 5820 5820 5819 5818 5818 5817 5816 5815 5814 5813 5812 5811 5811 5810 5808 5807 5806
5748 5754 5759 5763 5767 5773 5779 5783 5788 5792 5796 5798 5801 5804 5806 5807 5809 5811 5812 5812 5813 5814 5814 5814 5814 5814 5814 5814 5813 5812 5811 5810 5810 5809 5808 5807 5806 5806 5805 5804 5803 5802 5801 5800
5739 5745 5750 5754 5759 5765 5769 5774 5779 5783 5787 5790 5793 5796 5798 5800 5802 5803 5804 5805 5806 5806 5806 5807 5807 5807 5807 5806 5805 5805 5804 5803 5802 5801 5800 5800 5799 5798 5797 5797 5796 5795 5794 5793
5731 5737 5742 5746 5752 5757 5762 5766 5771 5775 5778 5782 5785 5788 5789 5791 5792 5795 5797 5797 5798 5798 5799 5798 5798 5798 5798 5798 5797 5797 5796 5795 5795 5794 5793 5793 5792 5791 5790 5789 5788 5787 5787 5786